Year,Month,Day,Hour,Minute,Value (Times are PST for temperature in C)
2015,09,29,00,00,8.10
2015,09,29,00,01,8.10
2015,09,29,00,02,8.10
2015,09,29,00,03,8.10
2015,09,29,00,04,8.10
2015,09,29,00,05,8.00
2015,09,29,00,06,8.10
2015,09,29,00,07,8.00
2015,09,29,00,08,8.00
2015,09,29,00,09,8.00
2015,09,29,00,10,8.00
2015,09,29,00,11,8.00
2015,09,29,00,12,8.00
2015,09,29,00,13,8.00
2015,09,29,00,14,7.90
2015,09,29,00,15,7.90
2015,09,29,00,16,7.90
2015,09,29,00,17,7.90
2015,09,29,00,18,7.90
2015,09,29,00,19,7.90
2015,09,29,00,20,7.90
2015,09,29,00,21,7.90
2015,09,29,00,22,7.90
2015,09,29,00,23,7.90
2015,09,29,00,24,7.90
2015,09,29,00,25,7.90
2015,09,29,00,26,7.90
2015,09,29,00,27,7.90
2015,09,29,00,28,7.90
2015,09,29,00,29,7.90
2015,09,29,00,30,7.90
2015,09,29,00,31,7.90
2015,09,29,00,32,7.90
2015,09,29,00,33,7.90
2015,09,29,00,34,7.90
2015,09,29,00,35,7.90
2015,09,29,00,36,7.90
2015,09,29,00,37,7.90
2015,09,29,00,38,7.90
2015,09,29,00,39,7.90
2015,09,29,00,40,7.90
2015,09,29,00,41,7.90
2015,09,29,00,42,7.90
2015,09,29,00,43,7.90
2015,09,29,00,44,7.90
2015,09,29,00,45,7.90
2015,09,29,00,46,7.80
2015,09,29,00,47,7.80
2015,09,29,00,48,7.80
2015,09,29,00,49,7.80
2015,09,29,00,50,7.80
2015,09,29,00,51,7.80
2015,09,29,00,52,7.80
2015,09,29,00,53,7.80
2015,09,29,00,54,7.80
2015,09,29,00,55,7.80
2015,09,29,00,56,7.80
2015,09,29,00,57,7.80
2015,09,29,00,58,7.80
2015,09,29,00,59,7.70
2015,09,29,01,00,7.70
2015,09,29,01,01,7.70
2015,09,29,01,02,7.70
2015,09,29,01,03,7.70
2015,09,29,01,04,7.70
2015,09,29,01,05,7.70
2015,09,29,01,06,7.70
2015,09,29,01,07,7.70
2015,09,29,01,08,7.70
2015,09,29,01,09,7.70
2015,09,29,01,10,7.70
2015,09,29,01,11,7.70
2015,09,29,01,12,7.70
2015,09,29,01,13,7.70
2015,09,29,01,14,7.70
2015,09,29,01,15,7.70
2015,09,29,01,16,7.70
2015,09,29,01,17,7.70
2015,09,29,01,18,7.70
2015,09,29,01,19,7.70
2015,09,29,01,20,7.70
2015,09,29,01,21,7.70
2015,09,29,01,22,7.70
2015,09,29,01,23,7.70
2015,09,29,01,24,7.70
2015,09,29,01,25,7.70
2015,09,29,01,26,7.60
2015,09,29,01,27,7.60
2015,09,29,01,28,7.60
2015,09,29,01,29,7.60
2015,09,29,01,30,7.60
2015,09,29,01,31,7.60
2015,09,29,01,32,7.60
2015,09,29,01,33,7.60
2015,09,29,01,34,7.60
2015,09,29,01,35,7.60
2015,09,29,01,36,7.60
2015,09,29,01,37,7.60
2015,09,29,01,38,7.60
2015,09,29,01,39,7.60
2015,09,29,01,40,7.60
2015,09,29,01,41,7.60
2015,09,29,01,42,7.60
2015,09,29,01,43,7.60
2015,09,29,01,44,7.60
2015,09,29,01,45,7.50
2015,09,29,01,46,7.60
2015,09,29,01,47,7.50
2015,09,29,01,48,7.50
2015,09,29,01,49,7.50
2015,09,29,01,50,7.50
2015,09,29,01,51,7.50
2015,09,29,01,52,7.50
2015,09,29,01,53,7.50
2015,09,29,01,54,7.50
2015,09,29,01,55,7.50
2015,09,29,01,56,7.50
2015,09,29,01,57,7.50
2015,09,29,01,58,7.50
2015,09,29,01,59,7.50
2015,09,29,02,00,7.50
2015,09,29,02,01,7.40
2015,09,29,02,02,7.40
2015,09,29,02,03,7.40
2015,09,29,02,04,7.40
2015,09,29,02,05,7.40
2015,09,29,02,06,7.40
2015,09,29,02,07,7.40
2015,09,29,02,08,7.40
2015,09,29,02,09,7.40
2015,09,29,02,10,7.40
2015,09,29,02,11,7.40
2015,09,29,02,12,7.40
2015,09,29,02,13,7.40
2015,09,29,02,14,7.40
2015,09,29,02,15,7.40
2015,09,29,02,16,7.40
2015,09,29,02,17,7.40
2015,09,29,02,18,7.40
2015,09,29,02,19,7.40
2015,09,29,02,20,7.40
2015,09,29,02,21,7.40
2015,09,29,02,22,7.40
2015,09,29,02,23,7.40
2015,09,29,02,24,7.40
2015,09,29,02,25,7.40
2015,09,29,02,26,7.40
2015,09,29,02,27,7.30
2015,09,29,02,28,7.30
2015,09,29,02,29,7.30
2015,09,29,02,30,7.30
2015,09,29,02,31,7.30
2015,09,29,02,32,7.30
2015,09,29,02,33,7.30
2015,09,29,02,34,7.30
2015,09,29,02,35,7.30
2015,09,29,02,36,7.30
2015,09,29,02,37,7.30
2015,09,29,02,38,7.30
2015,09,29,02,39,7.30
2015,09,29,02,40,7.30
2015,09,29,02,41,7.30
2015,09,29,02,42,7.30
2015,09,29,02,43,7.30
2015,09,29,02,44,7.30
2015,09,29,02,45,7.20
2015,09,29,02,46,7.20
2015,09,29,02,47,7.20
2015,09,29,02,48,7.20
2015,09,29,02,49,7.20
2015,09,29,02,50,7.20
2015,09,29,02,51,7.20
2015,09,29,02,52,7.20
2015,09,29,02,53,7.20
2015,09,29,02,54,7.20
2015,09,29,02,55,7.20
2015,09,29,02,56,7.20
2015,09,29,02,57,7.20
2015,09,29,02,58,7.20
2015,09,29,02,59,7.10
2015,09,29,03,00,7.10
2015,09,29,03,01,7.10
2015,09,29,03,02,7.10
2015,09,29,03,03,7.10
2015,09,29,03,04,7.10
2015,09,29,03,05,7.20
2015,09,29,03,06,7.20
2015,09,29,03,07,7.20
2015,09,29,03,08,7.20
2015,09,29,03,09,7.20
2015,09,29,03,10,7.20
2015,09,29,03,11,7.20
2015,09,29,03,12,7.10
2015,09,29,03,13,7.10
2015,09,29,03,14,7.10
2015,09,29,03,15,7.10
2015,09,29,03,16,7.10
2015,09,29,03,17,7.10
2015,09,29,03,18,7.10
2015,09,29,03,19,7.10
2015,09,29,03,20,7.10
2015,09,29,03,21,7.10
2015,09,29,03,22,7.10
2015,09,29,03,23,7.10
2015,09,29,03,24,7.10
2015,09,29,03,25,7.10
2015,09,29,03,26,7.10
2015,09,29,03,27,7.10
2015,09,29,03,28,7.10
2015,09,29,03,29,7.10
2015,09,29,03,30,7.10
2015,09,29,03,31,7.10
2015,09,29,03,32,7.10
2015,09,29,03,33,7.10
2015,09,29,03,34,7.10
2015,09,29,03,35,7.10
2015,09,29,03,36,7.10
2015,09,29,03,37,7.10
2015,09,29,03,38,7.10
2015,09,29,03,39,7.10
2015,09,29,03,40,7.10
2015,09,29,03,41,7.10
2015,09,29,03,42,7.10
2015,09,29,03,43,7.10
2015,09,29,03,44,7.10
2015,09,29,03,45,7.10
2015,09,29,03,46,7.10
2015,09,29,03,47,7.10
2015,09,29,03,48,7.10
2015,09,29,03,49,7.10
2015,09,29,03,50,7.10
2015,09,29,03,51,7.10
2015,09,29,03,52,7.10
2015,09,29,03,53,7.10
2015,09,29,03,54,7.10
2015,09,29,03,55,7.10
2015,09,29,03,56,7.10
2015,09,29,03,57,7.10
2015,09,29,03,58,7.10
2015,09,29,03,59,7.10
2015,09,29,04,00,7.10
2015,09,29,04,01,7.10
2015,09,29,04,02,7.10
2015,09,29,04,03,7.10
2015,09,29,04,04,7.10
2015,09,29,04,05,7.10
2015,09,29,04,06,7.00
2015,09,29,04,07,7.00
2015,09,29,04,08,7.00
2015,09,29,04,09,7.00
2015,09,29,04,10,7.00
2015,09,29,04,11,7.00
2015,09,29,04,12,6.90
2015,09,29,04,13,6.90
2015,09,29,04,14,6.90
2015,09,29,04,15,6.90
2015,09,29,04,16,6.90
2015,09,29,04,17,6.90
2015,09,29,04,18,6.90
2015,09,29,04,19,6.90
2015,09,29,04,20,6.90
2015,09,29,04,21,6.90
2015,09,29,04,22,6.90
2015,09,29,04,23,6.90
2015,09,29,04,24,6.90
2015,09,29,04,25,6.90
2015,09,29,04,26,6.90
2015,09,29,04,27,6.90
2015,09,29,04,28,6.90
2015,09,29,04,29,6.90
2015,09,29,04,30,6.90
2015,09,29,04,31,6.90
2015,09,29,04,32,6.80
2015,09,29,04,33,6.80
2015,09,29,04,34,6.80
2015,09,29,04,35,6.90
2015,09,29,04,36,6.90
2015,09,29,04,37,6.90
2015,09,29,04,38,6.90
2015,09,29,04,39,6.90
2015,09,29,04,40,6.90
2015,09,29,04,41,6.90
2015,09,29,04,42,6.90
2015,09,29,04,43,6.90
2015,09,29,04,44,6.90
2015,09,29,04,45,6.90
2015,09,29,04,46,6.90
2015,09,29,04,47,6.80
2015,09,29,04,48,6.80
2015,09,29,04,49,6.80
2015,09,29,04,50,6.80
2015,09,29,04,51,6.80
2015,09,29,04,52,6.80
2015,09,29,04,53,6.80
2015,09,29,04,54,6.80
2015,09,29,04,55,6.80
2015,09,29,04,56,6.80
2015,09,29,04,57,6.80
2015,09,29,04,58,6.80
2015,09,29,04,59,6.80
2015,09,29,05,00,6.80
2015,09,29,05,01,6.80
2015,09,29,05,02,6.80
2015,09,29,05,03,6.80
2015,09,29,05,04,6.80
2015,09,29,05,05,6.80
2015,09,29,05,06,6.80
2015,09,29,05,07,6.70
2015,09,29,05,08,6.70
2015,09,29,05,09,6.70
2015,09,29,05,10,6.70
2015,09,29,05,11,6.80
2015,09,29,05,12,6.70
2015,09,29,05,13,6.70
2015,09,29,05,14,6.70
2015,09,29,05,15,6.70
2015,09,29,05,16,6.70
2015,09,29,05,17,6.70
2015,09,29,05,18,6.70
2015,09,29,05,19,6.70
2015,09,29,05,20,6.70
2015,09,29,05,21,6.70
2015,09,29,05,22,6.70
2015,09,29,05,23,6.70
2015,09,29,05,24,6.60
2015,09,29,05,25,6.60
2015,09,29,05,26,6.60
2015,09,29,05,27,6.60
2015,09,29,05,28,6.60
2015,09,29,05,29,6.60
2015,09,29,05,30,6.60
2015,09,29,05,31,6.60
2015,09,29,05,32,6.60
2015,09,29,05,33,6.60
2015,09,29,05,34,6.60
2015,09,29,05,35,6.70
2015,09,29,05,36,6.70
2015,09,29,05,37,6.70
2015,09,29,05,38,6.70
2015,09,29,05,39,6.60
2015,09,29,05,40,6.60
2015,09,29,05,41,6.60
2015,09,29,05,42,6.60
2015,09,29,05,43,6.60
2015,09,29,05,44,6.60
2015,09,29,05,45,6.60
2015,09,29,05,46,6.60
2015,09,29,05,47,6.60
2015,09,29,05,48,6.70
2015,09,29,05,49,6.70
2015,09,29,05,50,6.70
2015,09,29,05,51,6.70
2015,09,29,05,52,6.70
2015,09,29,05,53,6.70
2015,09,29,05,54,6.80
2015,09,29,05,55,6.80
2015,09,29,05,56,6.70
2015,09,29,05,57,6.70
2015,09,29,05,58,6.70
2015,09,29,05,59,6.70
2015,09,29,06,00,6.70
2015,09,29,06,01,6.70
2015,09,29,06,02,6.70
2015,09,29,06,03,6.70
2015,09,29,06,04,6.70
2015,09,29,06,05,6.70
2015,09,29,06,06,6.70
2015,09,29,06,07,6.70
2015,09,29,06,08,6.70
2015,09,29,06,09,6.70
2015,09,29,06,10,6.70
2015,09,29,06,11,6.60
2015,09,29,06,12,6.60
2015,09,29,06,13,6.60
2015,09,29,06,14,6.60
2015,09,29,06,15,6.60
2015,09,29,06,16,6.60
2015,09,29,06,17,6.60
2015,09,29,06,18,6.60
2015,09,29,06,19,6.60
2015,09,29,06,20,6.60
2015,09,29,06,21,6.60
2015,09,29,06,22,6.60
2015,09,29,06,23,6.60
2015,09,29,06,24,6.60
2015,09,29,06,25,6.60
2015,09,29,06,26,6.60
2015,09,29,06,27,6.60
2015,09,29,06,28,6.60
2015,09,29,06,29,6.60
2015,09,29,06,30,6.50
2015,09,29,06,31,6.50
2015,09,29,06,32,6.50
2015,09,29,06,33,6.50
2015,09,29,06,34,6.50
2015,09,29,06,35,6.50
2015,09,29,06,36,6.50
2015,09,29,06,37,6.50
2015,09,29,06,38,6.50
2015,09,29,06,39,6.50
2015,09,29,06,40,6.60
2015,09,29,06,41,6.60
2015,09,29,06,42,6.60
2015,09,29,06,43,6.70
2015,09,29,06,44,6.70
2015,09,29,06,45,6.80
2015,09,29,06,46,6.80
2015,09,29,06,47,6.80
2015,09,29,06,48,6.80
2015,09,29,06,49,6.80
2015,09,29,06,50,6.90
2015,09,29,06,51,6.90
2015,09,29,06,52,6.90
2015,09,29,06,53,6.90
2015,09,29,06,54,6.90
2015,09,29,06,55,6.90
2015,09,29,06,56,6.90
2015,09,29,06,57,6.90
2015,09,29,06,58,6.90
2015,09,29,06,59,6.90
2015,09,29,07,00,6.90
2015,09,29,07,01,6.90
2015,09,29,07,02,6.90
2015,09,29,07,03,6.90
2015,09,29,07,04,6.90
2015,09,29,07,05,6.90
2015,09,29,07,06,6.90
2015,09,29,07,07,6.90
2015,09,29,07,08,6.90
2015,09,29,07,09,6.90
2015,09,29,07,10,6.90
2015,09,29,07,11,7.00
2015,09,29,07,12,7.00
2015,09,29,07,13,7.00
2015,09,29,07,14,7.00
2015,09,29,07,15,7.00
2015,09,29,07,16,7.00
2015,09,29,07,17,7.00
2015,09,29,07,18,7.00
2015,09,29,07,19,7.00
2015,09,29,07,20,7.10
2015,09,29,07,21,7.10
2015,09,29,07,22,7.10
2015,09,29,07,23,7.10
2015,09,29,07,24,7.10
2015,09,29,07,25,7.10
2015,09,29,07,26,7.10
2015,09,29,07,27,7.10
2015,09,29,07,28,7.10
2015,09,29,07,29,7.10
2015,09,29,07,30,7.10
2015,09,29,07,31,7.10
2015,09,29,07,32,7.20
2015,09,29,07,33,7.20
2015,09,29,07,34,7.20
2015,09,29,07,35,7.20
2015,09,29,07,36,7.20
2015,09,29,07,37,7.20
2015,09,29,07,38,7.20
2015,09,29,07,39,7.20
2015,09,29,07,40,7.20
2015,09,29,07,41,7.20
2015,09,29,07,42,7.20
2015,09,29,07,43,7.30
2015,09,29,07,44,7.30
2015,09,29,07,45,7.30
2015,09,29,07,46,7.40
2015,09,29,07,47,7.40
2015,09,29,07,48,7.50
2015,09,29,07,49,7.50
2015,09,29,07,50,7.60
2015,09,29,07,51,7.60
2015,09,29,07,52,7.70
2015,09,29,07,53,7.70
2015,09,29,07,54,7.80
2015,09,29,07,55,7.80
2015,09,29,07,56,7.90
2015,09,29,07,57,7.90
2015,09,29,07,58,7.90
2015,09,29,07,59,8.00
2015,09,29,08,00,8.00
2015,09,29,08,01,8.00
2015,09,29,08,02,8.00
2015,09,29,08,03,8.10
2015,09,29,08,04,8.10
2015,09,29,08,05,8.10
2015,09,29,08,06,8.10
2015,09,29,08,07,8.10
2015,09,29,08,08,8.20
2015,09,29,08,09,8.20
2015,09,29,08,10,8.30
2015,09,29,08,11,8.30
2015,09,29,08,12,8.40
2015,09,29,08,13,8.40
2015,09,29,08,14,8.50
2015,09,29,08,15,8.50
2015,09,29,08,16,8.60
2015,09,29,08,17,8.60
2015,09,29,08,18,8.70
2015,09,29,08,19,8.70
2015,09,29,08,20,8.70
2015,09,29,08,21,8.80
2015,09,29,08,22,8.80
2015,09,29,08,23,8.80
2015,09,29,08,24,8.90
2015,09,29,08,25,9.00
2015,09,29,08,26,9.10
2015,09,29,08,27,9.10
2015,09,29,08,28,9.20
2015,09,29,08,29,9.30
2015,09,29,08,30,9.40
2015,09,29,08,31,9.50
2015,09,29,08,32,9.60
2015,09,29,08,33,9.70
2015,09,29,08,34,9.80
2015,09,29,08,35,9.90
2015,09,29,08,36,10.00
2015,09,29,08,37,10.00
2015,09,29,08,38,10.10
2015,09,29,08,39,10.10
2015,09,29,08,40,10.20
2015,09,29,08,41,10.30
2015,09,29,08,42,10.40
2015,09,29,08,43,10.50
2015,09,29,08,44,10.60
2015,09,29,08,45,10.70
2015,09,29,08,46,10.70
2015,09,29,08,47,10.80
2015,09,29,08,48,10.80
2015,09,29,08,49,10.90
2015,09,29,08,50,10.90
2015,09,29,08,51,11.00
2015,09,29,08,52,11.10
2015,09,29,08,53,11.20
2015,09,29,08,54,11.20
2015,09,29,08,55,11.30
2015,09,29,08,56,11.40
2015,09,29,08,57,11.40
2015,09,29,08,58,11.40
2015,09,29,08,59,11.50
2015,09,29,09,00,11.50
2015,09,29,09,01,11.60
2015,09,29,09,02,11.70
2015,09,29,09,03,11.90
2015,09,29,09,04,12.10
2015,09,29,09,05,12.20
2015,09,29,09,06,12.40
2015,09,29,09,07,12.50
2015,09,29,09,08,12.50
2015,09,29,09,09,12.60
2015,09,29,09,10,12.60
2015,09,29,09,11,12.60
2015,09,29,09,12,12.60
2015,09,29,09,13,12.70
2015,09,29,09,14,12.70
2015,09,29,09,15,12.80
2015,09,29,09,16,12.80
2015,09,29,09,17,12.80
2015,09,29,09,18,12.80
2015,09,29,09,19,12.80
2015,09,29,09,20,12.80
2015,09,29,09,21,12.80
2015,09,29,09,22,12.80
2015,09,29,09,23,12.80
2015,09,29,09,24,12.80
2015,09,29,09,25,12.80
2015,09,29,09,26,12.70
2015,09,29,09,27,12.70
2015,09,29,09,28,12.70
2015,09,29,09,29,12.70
2015,09,29,09,30,12.70
2015,09,29,09,31,12.70
2015,09,29,09,32,12.80
2015,09,29,09,33,12.80
2015,09,29,09,34,12.80
2015,09,29,09,35,12.80
2015,09,29,09,36,12.90
2015,09,29,09,37,12.90
2015,09,29,09,38,12.90
2015,09,29,09,39,13.00
2015,09,29,09,40,13.00
2015,09,29,09,41,13.00
2015,09,29,09,42,13.10
2015,09,29,09,43,13.10
2015,09,29,09,44,13.10
2015,09,29,09,45,13.20
2015,09,29,09,46,13.20
2015,09,29,09,47,13.30
2015,09,29,09,48,13.30
2015,09,29,09,49,13.30
2015,09,29,09,50,13.30
2015,09,29,09,51,13.30
2015,09,29,09,52,13.40
2015,09,29,09,53,13.40
2015,09,29,09,54,13.40
2015,09,29,09,55,13.40
2015,09,29,09,56,13.50
2015,09,29,09,57,13.50
2015,09,29,09,58,13.60
2015,09,29,09,59,13.60
2015,09,29,10,00,13.60
2015,09,29,10,01,13.70
2015,09,29,10,02,13.70
2015,09,29,10,03,13.80
2015,09,29,10,04,13.80
2015,09,29,10,05,13.80
2015,09,29,10,06,13.90
2015,09,29,10,07,14.00
2015,09,29,10,08,14.00
2015,09,29,10,09,14.10
2015,09,29,10,10,14.20
2015,09,29,10,11,14.20
2015,09,29,10,12,14.20
2015,09,29,10,13,14.30
2015,09,29,10,14,14.30
2015,09,29,10,15,14.40
2015,09,29,10,16,14.40
2015,09,29,10,17,14.50
2015,09,29,10,18,14.50
2015,09,29,10,19,14.60
2015,09,29,10,20,14.60
2015,09,29,10,21,14.60
2015,09,29,10,22,14.70
2015,09,29,10,23,14.70
2015,09,29,10,24,14.70
2015,09,29,10,25,14.80
2015,09,29,10,26,14.80
2015,09,29,10,27,14.80
2015,09,29,10,28,14.80
2015,09,29,10,29,14.80
2015,09,29,10,30,14.80
2015,09,29,10,31,14.80
2015,09,29,10,32,14.80
2015,09,29,10,33,14.80
2015,09,29,10,34,14.80
2015,09,29,10,35,14.80
2015,09,29,10,36,14.80
2015,09,29,10,37,14.90
2015,09,29,10,38,15.00
2015,09,29,10,39,15.00
2015,09,29,10,40,15.10
2015,09,29,10,41,15.20
2015,09,29,10,42,15.20
2015,09,29,10,43,15.30
2015,09,29,10,44,15.30
2015,09,29,10,45,15.30
2015,09,29,10,46,15.30
2015,09,29,10,47,15.40
2015,09,29,10,48,15.40
2015,09,29,10,49,15.50
2015,09,29,10,50,15.50
2015,09,29,10,51,15.60
2015,09,29,10,52,15.70
2015,09,29,10,53,15.70
2015,09,29,10,54,15.80
2015,09,29,10,55,15.80
2015,09,29,10,56,15.90
2015,09,29,10,57,15.90
2015,09,29,10,58,15.90
2015,09,29,10,59,15.90
2015,09,29,11,00,15.90
2015,09,29,11,01,15.90
2015,09,29,11,02,15.90
2015,09,29,11,03,15.90
2015,09,29,11,04,15.90
2015,09,29,11,05,15.80
2015,09,29,11,06,15.80
2015,09,29,11,07,15.80
2015,09,29,11,08,15.80
2015,09,29,11,09,15.80
2015,09,29,11,10,15.80
2015,09,29,11,11,15.90
2015,09,29,11,12,15.90
2015,09,29,11,13,15.90
2015,09,29,11,14,16.00
2015,09,29,11,15,16.00
2015,09,29,11,16,16.10
2015,09,29,11,17,16.20
2015,09,29,11,18,16.20
2015,09,29,11,19,16.20
2015,09,29,11,20,16.20
2015,09,29,11,21,16.20
2015,09,29,11,22,16.30
2015,09,29,11,23,16.30
2015,09,29,11,24,16.30
2015,09,29,11,25,16.30
2015,09,29,11,26,16.40
2015,09,29,11,27,16.40
2015,09,29,11,28,16.40
2015,09,29,11,29,16.40
2015,09,29,11,30,16.40
2015,09,29,11,31,16.40
2015,09,29,11,32,16.40
2015,09,29,11,33,16.40
2015,09,29,11,34,16.40
2015,09,29,11,35,16.50
2015,09,29,11,36,16.60
2015,09,29,11,37,16.70
2015,09,29,11,38,16.70
2015,09,29,11,39,16.80
2015,09,29,11,40,16.80
2015,09,29,11,41,16.80
2015,09,29,11,42,16.80
2015,09,29,11,43,16.90
2015,09,29,11,44,17.00
2015,09,29,11,45,17.00
2015,09,29,11,46,17.10
2015,09,29,11,47,17.10
2015,09,29,11,48,17.10
2015,09,29,11,49,17.10
2015,09,29,11,50,17.10
2015,09,29,11,51,17.10
2015,09,29,11,52,17.10
2015,09,29,11,53,17.20
2015,09,29,11,54,17.20
2015,09,29,11,55,17.20
2015,09,29,11,56,17.20
2015,09,29,11,57,17.10
2015,09,29,11,58,17.20
2015,09,29,11,59,17.20
2015,09,29,12,00,17.20
2015,09,29,12,01,17.20
2015,09,29,12,02,17.20
2015,09,29,12,03,17.20
2015,09,29,12,04,17.20
2015,09,29,12,05,17.20
2015,09,29,12,06,17.30
2015,09,29,12,07,17.30
2015,09,29,12,08,17.40
2015,09,29,12,09,17.40
2015,09,29,12,10,17.50
2015,09,29,12,11,17.50
2015,09,29,12,12,17.60
2015,09,29,12,13,17.60
2015,09,29,12,14,17.60
2015,09,29,12,15,17.60
2015,09,29,12,16,17.70
2015,09,29,12,17,17.70
2015,09,29,12,18,17.70
2015,09,29,12,19,17.70
2015,09,29,12,20,17.70
2015,09,29,12,21,17.70
2015,09,29,12,22,17.70
2015,09,29,12,23,17.70
2015,09,29,12,24,17.70
2015,09,29,12,25,17.80
2015,09,29,12,26,17.80
2015,09,29,12,27,17.80
2015,09,29,12,28,17.80
2015,09,29,12,29,17.80
2015,09,29,12,30,17.80
2015,09,29,12,31,17.90
2015,09,29,12,32,18.00
2015,09,29,12,33,18.00
2015,09,29,12,34,18.10
2015,09,29,12,35,18.10
2015,09,29,12,36,18.20
2015,09,29,12,37,18.30
2015,09,29,12,38,18.30
2015,09,29,12,39,18.30
2015,09,29,12,40,18.30
2015,09,29,12,41,18.30
2015,09,29,12,42,18.30
2015,09,29,12,43,18.40
2015,09,29,12,44,18.50
2015,09,29,12,45,18.50
2015,09,29,12,46,18.50
2015,09,29,12,47,18.60
2015,09,29,12,48,18.60
2015,09,29,12,49,18.60
2015,09,29,12,50,18.60
2015,09,29,12,51,18.70
2015,09,29,12,52,18.70
2015,09,29,12,53,18.70
2015,09,29,12,54,18.70
2015,09,29,12,55,18.80
2015,09,29,12,56,18.80
2015,09,29,12,57,18.80
2015,09,29,12,58,18.90
2015,09,29,12,59,18.90
2015,09,29,13,00,18.90
2015,09,29,13,01,19.00
2015,09,29,13,02,19.10
2015,09,29,13,03,19.20
2015,09,29,13,04,19.20
2015,09,29,13,05,19.30
2015,09,29,13,06,19.30
2015,09,29,13,07,19.30
2015,09,29,13,08,19.30
2015,09,29,13,09,19.40
2015,09,29,13,10,19.40
2015,09,29,13,11,19.40
2015,09,29,13,12,19.50
2015,09,29,13,13,19.60
2015,09,29,13,14,19.60
2015,09,29,13,15,19.60
2015,09,29,13,16,19.70
2015,09,29,13,17,19.70
2015,09,29,13,18,19.70
2015,09,29,13,19,19.80
2015,09,29,13,20,19.90
2015,09,29,13,21,19.80
2015,09,29,13,22,19.90
2015,09,29,13,23,19.90
2015,09,29,13,24,19.90
2015,09,29,13,25,19.90
2015,09,29,13,26,19.90
2015,09,29,13,27,19.90
2015,09,29,13,28,19.80
2015,09,29,13,29,19.80
2015,09,29,13,30,19.80
2015,09,29,13,31,19.80
2015,09,29,13,32,19.80
2015,09,29,13,33,19.90
2015,09,29,13,34,20.00
2015,09,29,13,35,20.00
2015,09,29,13,36,20.10
2015,09,29,13,37,20.10
2015,09,29,13,38,20.10
2015,09,29,13,39,20.20
2015,09,29,13,40,20.30
2015,09,29,13,41,20.40
2015,09,29,13,42,20.40
2015,09,29,13,43,20.40
2015,09,29,13,44,20.50
2015,09,29,13,45,20.50
2015,09,29,13,46,20.50
2015,09,29,13,47,20.60
2015,09,29,13,48,20.60
2015,09,29,13,49,20.60
2015,09,29,13,50,20.70
2015,09,29,13,51,20.70
2015,09,29,13,52,20.70
2015,09,29,13,53,20.70
2015,09,29,13,54,20.70
2015,09,29,13,55,20.80
2015,09,29,13,56,20.80
2015,09,29,13,57,20.90
2015,09,29,13,58,20.90
2015,09,29,13,59,21.00
2015,09,29,14,00,21.10
2015,09,29,14,01,21.10
2015,09,29,14,02,21.10
2015,09,29,14,03,21.10
2015,09,29,14,04,21.20
2015,09,29,14,05,21.20
2015,09,29,14,06,21.30
2015,09,29,14,07,21.30
2015,09,29,14,08,21.40
2015,09,29,14,09,21.60
2015,09,29,14,10,21.80
2015,09,29,14,11,21.80
2015,09,29,14,12,21.80
2015,09,29,14,13,21.80
2015,09,29,14,14,21.70
2015,09,29,14,15,21.70
2015,09,29,14,16,21.70
2015,09,29,14,17,21.70
2015,09,29,14,18,21.60
2015,09,29,14,19,21.60
2015,09,29,14,20,21.60
2015,09,29,14,21,21.60
2015,09,29,14,22,21.70
2015,09,29,14,23,21.70
2015,09,29,14,24,21.60
2015,09,29,14,25,21.60
2015,09,29,14,26,21.70
2015,09,29,14,27,21.60
2015,09,29,14,28,21.60
2015,09,29,14,29,21.60
2015,09,29,14,30,21.60
2015,09,29,14,31,21.70
2015,09,29,14,32,21.80
2015,09,29,14,33,21.90
2015,09,29,14,34,22.00
2015,09,29,14,35,22.10
2015,09,29,14,36,22.20
2015,09,29,14,37,22.30
2015,09,29,14,38,22.30
2015,09,29,14,39,22.40
2015,09,29,14,40,22.40
2015,09,29,14,41,22.30
2015,09,29,14,42,22.30
2015,09,29,14,43,22.20
2015,09,29,14,44,22.20
2015,09,29,14,45,22.20
2015,09,29,14,46,22.20
2015,09,29,14,47,22.20
2015,09,29,14,48,22.20
2015,09,29,14,49,22.20
2015,09,29,14,50,22.30
2015,09,29,14,51,22.40
2015,09,29,14,52,22.50
2015,09,29,14,53,22.40
2015,09,29,14,54,22.30
2015,09,29,14,55,22.30
2015,09,29,14,56,22.10
2015,09,29,14,57,22.00
2015,09,29,14,58,21.90
2015,09,29,14,59,21.80
2015,09,29,15,00,21.80
2015,09,29,15,01,21.90
2015,09,29,15,02,21.90
2015,09,29,15,03,21.90
2015,09,29,15,04,21.90
2015,09,29,15,05,21.80
2015,09,29,15,06,21.70
2015,09,29,15,07,21.70
2015,09,29,15,08,21.70
2015,09,29,15,09,21.70
2015,09,29,15,10,21.70
2015,09,29,15,11,21.70
2015,09,29,15,12,21.60
2015,09,29,15,13,21.60
2015,09,29,15,14,21.60
2015,09,29,15,15,21.50
2015,09,29,15,16,21.50
2015,09,29,15,17,21.60
2015,09,29,15,18,21.70
2015,09,29,15,19,21.70
2015,09,29,15,20,21.80
2015,09,29,15,21,21.80
2015,09,29,15,22,21.80
2015,09,29,15,23,21.80
2015,09,29,15,24,21.80
2015,09,29,15,25,21.80
2015,09,29,15,26,21.80
2015,09,29,15,27,21.80
2015,09,29,15,28,21.90
2015,09,29,15,29,21.90
2015,09,29,15,30,21.90
2015,09,29,15,31,21.90
2015,09,29,15,32,21.90
2015,09,29,15,33,21.90
2015,09,29,15,34,21.90
2015,09,29,15,35,21.90
2015,09,29,15,36,22.00
2015,09,29,15,37,21.90
2015,09,29,15,38,21.80
2015,09,29,15,39,21.80
2015,09,29,15,40,21.70
2015,09,29,15,41,21.60
2015,09,29,15,42,21.50
2015,09,29,15,43,21.40
2015,09,29,15,44,21.40
2015,09,29,15,45,21.40
2015,09,29,15,46,21.50
2015,09,29,15,47,21.60
2015,09,29,15,48,21.70
2015,09,29,15,49,21.70
2015,09,29,15,50,21.70
2015,09,29,15,51,21.80
2015,09,29,15,52,21.70
2015,09,29,15,53,21.70
2015,09,29,15,54,21.70
2015,09,29,15,55,21.80
2015,09,29,15,56,21.80
2015,09,29,15,57,21.80
2015,09,29,15,58,21.80
2015,09,29,15,59,21.70
2015,09,29,16,00,21.50
2015,09,29,16,01,21.40
2015,09,29,16,02,21.40
2015,09,29,16,03,21.30
2015,09,29,16,04,21.20
2015,09,29,16,05,21.20
2015,09,29,16,06,21.20
2015,09,29,16,07,21.30
2015,09,29,16,08,21.30
2015,09,29,16,09,21.30
2015,09,29,16,10,21.30
2015,09,29,16,11,21.30
2015,09,29,16,12,21.30
2015,09,29,16,13,21.30
2015,09,29,16,14,21.20
2015,09,29,16,15,21.10
2015,09,29,16,16,21.00
2015,09,29,16,17,20.90
2015,09,29,16,18,20.90
2015,09,29,16,19,20.80
2015,09,29,16,20,20.70
2015,09,29,16,21,20.70
2015,09,29,16,22,20.60
2015,09,29,16,23,20.60
2015,09,29,16,24,20.60
2015,09,29,16,25,20.60
2015,09,29,16,26,20.50
2015,09,29,16,27,20.50
2015,09,29,16,28,20.50
2015,09,29,16,29,20.50
2015,09,29,16,30,20.50
2015,09,29,16,31,20.50
2015,09,29,16,32,20.40
2015,09,29,16,33,20.50
2015,09,29,16,34,20.50
2015,09,29,16,35,20.50
2015,09,29,16,36,20.40
2015,09,29,16,37,20.50
2015,09,29,16,38,20.50
2015,09,29,16,39,20.60
2015,09,29,16,40,20.60
2015,09,29,16,41,20.60
2015,09,29,16,42,20.60
2015,09,29,16,43,20.50
2015,09,29,16,44,20.50
2015,09,29,16,45,20.50
2015,09,29,16,46,20.60
2015,09,29,16,47,20.60
2015,09,29,16,48,20.60
2015,09,29,16,49,20.60
2015,09,29,16,50,20.60
2015,09,29,16,51,20.50
2015,09,29,16,52,20.40
2015,09,29,16,53,20.40
2015,09,29,16,54,20.40
2015,09,29,16,55,20.30
2015,09,29,16,56,20.30
2015,09,29,16,57,20.30
2015,09,29,16,58,20.30
2015,09,29,16,59,20.30
2015,09,29,17,00,20.30
2015,09,29,17,01,20.30
2015,09,29,17,02,20.30
2015,09,29,17,03,20.30
2015,09,29,17,04,20.30
2015,09,29,17,05,20.30
2015,09,29,17,06,20.30
2015,09,29,17,07,20.30
2015,09,29,17,08,20.30
2015,09,29,17,09,20.30
2015,09,29,17,10,20.30
2015,09,29,17,11,20.30
2015,09,29,17,12,20.30
2015,09,29,17,13,20.30
2015,09,29,17,14,20.30
2015,09,29,17,15,20.30
2015,09,29,17,16,20.40
2015,09,29,17,17,20.40
2015,09,29,17,18,20.40
2015,09,29,17,19,20.40
2015,09,29,17,20,20.40
2015,09,29,17,21,20.40
2015,09,29,17,22,20.40
2015,09,29,17,23,20.40
2015,09,29,17,24,20.40
2015,09,29,17,25,20.50
2015,09,29,17,26,20.50
2015,09,29,17,27,20.50
2015,09,29,17,28,20.50
2015,09,29,17,29,20.50
2015,09,29,17,30,20.60
2015,09,29,17,31,20.50
2015,09,29,17,32,20.50
2015,09,29,17,33,20.50
2015,09,29,17,34,20.60
2015,09,29,17,35,20.60
2015,09,29,17,36,20.60
2015,09,29,17,37,20.60
2015,09,29,17,38,20.50
2015,09,29,17,39,20.50
2015,09,29,17,40,20.50
2015,09,29,17,41,20.40